Napakiak AP, Napakiak, AK, AK

9:07 AM AKDT on October 19, 2017 (GMT -0800)
Napakiak AP, Napakiak, AK

Weather History for PANA - December, 2013

Change the Weather History Date:

Thursday, December 5, 2013

  Actual Average (PABE) Record (PABE)
Temperature  
Mean Temperature 39 °F -  
Max Temperature 41 °F 13 °F 41 °F (1972)
Min Temperature 37 °F 2 °F -30 °F (1987)
Degree Days  
Heating Degree Days 26    
Moisture  
Dew Point 37 °F    
Average Humidity 93    
Maximum Humidity 100    
Minimum Humidity 86    
Precipitation  
Precipitation 0.04 in - - ()
Sea Level Pressure  
Sea Level Pressure 30.06 in    
Wind  
Wind Speed 7 mph (ESE)    
Max Wind Speed 10 mph    
Max Gust Speed -    
Visibility 10 miles    
Events Rain    
Averages and records for this station are not official NWS values.
T = Trace of Precipitation, MM = Missing Value Source: NWS Daily Summary

Daily Weather History Graph

Daily Weather History Graph

Search for Another Location

Airport or City:

Trip Planner

Search our weather history database for the weather conditions in past years. The results will help you decide how hot, cold, wet, or windy it might be!

Date:

Astronomy

Dec. 05, 2013 Rise Set
Actual Time 10:37 AM AKST 4:39 PM AKST
Civil Twilight 9:40 AM AKST 5:37 PM AKST
Nautical Twilight 8:42 AM AKST 6:34 PM AKST
Astronomical Twilight 7:50 AM AKST 7:26 PM AKST
Moon 12:36 PM AKST (12/5) 8:49 PM AKST (12/5)
Length of Visible Light 7h 57m
Length of Day
6h 01m
Waxing Crescent, 12% of the Moon is Illuminated
Dec 5
Waxing Crescent
Dec 9
First Quarter
Dec 17
Full
Dec 25
Last Quarter
Jan 1
New

Hourly Weather History & Observations

Time (AKST) Temp. Windchill Dew Point Humidity Pressure Visibility Wind Dir Wind Speed Gust Speed Precip Events Conditions
12:56 AM 37.0 °F 31.6 °F 37.0 °F 100% 29.96 in 10.0 mi East 6.9 mph - 0.01 in Rain Light Rain
1:56 AM 37.9 °F 33.5 °F 37.0 °F 97% 29.97 in 7.0 mi East 5.8 mph - 0.03 in Rain Light Rain
3:56 AM 37.0 °F 33.3 °F 37.0 °F 100% 29.98 in 10.0 mi East 4.6 mph - N/A   Mostly Cloudy
4:56 AM 37.0 °F 32.4 °F 36.0 °F 96% 29.97 in 10.0 mi East 5.8 mph - N/A   Clear
5:56 AM 37.0 °F 32.4 °F 37.0 °F 100% 29.99 in 10.0 mi ESE 5.8 mph - N/A   Overcast
6:56 AM 37.9 °F 31.5 °F 36.0 °F 93% 30.00 in 10.0 mi ESE 9.2 mph - N/A   Mostly Cloudy
7:56 AM 37.9 °F 31.5 °F 36.0 °F 93% 30.01 in 10.0 mi ESE 9.2 mph - N/A   Overcast
8:56 AM 37.9 °F 30.9 °F 36.0 °F 93% 30.02 in 10.0 mi ESE 10.4 mph - N/A   Overcast
9:56 AM 39.9 °F 33.4 °F 37.0 °F 89% 30.03 in 10.0 mi SE 10.4 mph - N/A   Overcast
10:56 AM 39.9 °F 33.9 °F 37.0 °F 89% 30.05 in 10.0 mi SE 9.2 mph - N/A   Overcast
11:56 AM 39.9 °F 33.4 °F 37.0 °F 89% 30.05 in 10.0 mi SE 10.4 mph - N/A   Overcast
12:37 PM 39.2 °F 33.6 °F 37.4 °F 93% 30.06 in 10.0 mi SE 8.1 mph - N/A   Overcast
12:56 PM 41.0 °F 34.7 °F 37.0 °F 86% 30.07 in 10.0 mi SE 10.4 mph - N/A   Overcast
1:56 PM 39.9 °F 33.9 °F 37.0 °F 89% 30.09 in 10.0 mi SSE 9.2 mph - N/A   Overcast
2:56 PM 39.9 °F 35.8 °F 37.0 °F 89% 30.09 in 10.0 mi SSE 5.8 mph - N/A   Overcast
3:56 PM 39.9 °F 34.5 °F 37.9 °F 93% 30.09 in 10.0 mi SE 8.1 mph - N/A   Overcast
4:56 PM 37.9 °F 32.1 °F 37.0 °F 97% 30.10 in 10.0 mi ESE 8.1 mph - N/A   Overcast
5:56 PM 39.0 °F 32.8 °F 37.0 °F 93% 30.11 in 10.0 mi SSE 9.2 mph - N/A   Overcast
6:56 PM 39.0 °F 34.8 °F 37.0 °F 93% 30.12 in 10.0 mi SSE 5.8 mph - N/A   Overcast
7:56 PM 37.9 °F 33.5 °F 36.0 °F 93% 30.14 in 10.0 mi SE 5.8 mph - N/A   Overcast
8:56 PM 37.9 °F 33.5 °F 36.0 °F 93% 30.14 in 10.0 mi SE 5.8 mph - N/A   Mostly Cloudy
9:56 PM 37.9 °F 32.7 °F 36.0 °F 93% 30.13 in 10.0 mi SE 6.9 mph - N/A   Mostly Cloudy
10:56 PM 37.0 °F 32.4 °F 35.1 °F 93% 30.12 in 10.0 mi ENE 5.8 mph - N/A   Scattered Clouds
11:56 PM 37.9 °F 32.1 °F 36.0 °F 93% 30.09 in 10.0 mi ENE 8.1 mph - N/A   Overcast